McCook, NE

3:41 AM CDT on April 27, 2018 (GMT -0500)
McCook Municipal

Weather History for KMCK - February, 2012

Change the Weather History Date:

Monday, February 20, 2012

  Actual Average Record
Temperature  
Mean Temperature 36 °F 32 °F  
Max Temperature 45 °F 46 °F 81 °F (1930)
Min Temperature 26 °F 18 °F -8 °F (1918)
Degree Days  
Heating Degree Days 30    
Moisture  
Dew Point 31 °F    
Average Humidity 81    
Maximum Humidity 89    
Minimum Humidity 67    
Precipitation  
Precipitation T in 0.02 in 0.37 in (1953)
Month to date precipitation 0.32 0.40  
Year to date precipitation 0.32 0.91  
Sea Level Pressure  
Sea Level Pressure 29.65 in    
Wind  
Wind Speed 17 mph (West)    
Max Wind Speed 34 mph    
Max Gust Speed 50 mph    
Visibility 8 miles    
Events Snow    
T = Trace of Precipitation, MM = Missing Value Source: NWS Daily Summary

Daily Weather History Graph

Daily Weather History Graph

Search for Another Location

Airport or City:

Astronomy

Feb. 20, 2012 Rise Set
Actual Time 7:29 AM CST 6:23 PM CST
Civil Twilight 7:01 AM CST 6:50 PM CST
Nautical Twilight 6:30 AM CST 7:22 PM CST
Astronomical Twilight 5:58 AM CST 7:54 PM CST
Moon 6:27 AM CST (2/20) 5:29 PM CST (2/20)
Length of Visible Light 11h 49m
Length of Day
10h 53m
Waning Crescent, 1% of the Moon is Illuminated
Feb 20
Waning Crescent
Feb 21
New
Feb 29
First Quarter
Mar 8
Full
Mar 14
Last Quarter

Hourly Weather History & Observations

Time (CST) Temp. Windchill Dew Point Humidity Pressure Visibility Wind Dir Wind Speed Gust Speed Precip Events Conditions
12:53 AM 41.0 °F 32.5 °F 35.1 °F 79% 29.66 in 10.0 mi SSE 17.3 mph 21.9 mph N/A   Overcast
1:30 AM 41.0 °F 35.8 °F 35.6 °F 81% 29.63 in 10.0 mi SSE 8.1 mph 18.4 mph N/A   Overcast
1:53 AM 41.0 °F 34.3 °F 35.1 °F 79% 29.65 in 10.0 mi SSE 11.5 mph 17.3 mph N/A   Overcast
2:53 AM 41.0 °F 34.3 °F 36.0 °F 82% 29.63 in 10.0 mi SSE 11.5 mph 17.3 mph N/A   Overcast
3:53 AM 41.0 °F 32.8 °F 36.0 °F 82% 29.58 in 10.0 mi SSE 16.1 mph 26.5 mph N/A   Overcast
4:53 AM 41.0 °F 33.5 °F 37.0 °F 86% 29.55 in 10.0 mi SSE 13.8 mph 24.2 mph N/A   Overcast
5:53 AM 41.0 °F 33.5 °F 37.0 °F 86% 29.54 in 9.0 mi SSE 13.8 mph - N/A   Overcast
6:53 AM 39.0 °F 31.4 °F 35.1 °F 86% 29.52 in 9.0 mi SSW 12.7 mph - N/A   Scattered Clouds
7:03 AM 39.2 °F 31.2 °F 33.8 °F 81% 29.50 in 10.0 mi SW 13.8 mph - N/A   Mostly Cloudy
7:29 AM 35.6 °F 28.6 °F 30.2 °F 81% 29.50 in 7.0 mi SW 9.2 mph - N/A   Scattered Clouds
7:53 AM 36.0 °F 29.6 °F 32.0 °F 86% 29.54 in 7.0 mi SW 8.1 mph - N/A   Mostly Cloudy
8:18 AM 35.6 °F 28.6 °F 32.0 °F 87% 29.51 in 7.0 mi SSW 9.2 mph - N/A   Overcast
8:35 AM 37.4 °F 32.1 °F 33.8 °F 87% 29.52 in 7.0 mi SSW 6.9 mph - N/A   Overcast
8:53 AM 37.9 °F 31.5 °F 34.0 °F 86% 29.55 in 7.0 mi SSW 9.2 mph - N/A   Overcast
9:53 AM 42.1 °F 35.2 °F 35.1 °F 76% 29.54 in 10.0 mi SW 12.7 mph - N/A   Overcast
10:53 AM 43.0 °F 36.8 °F 35.1 °F 74% 29.55 in 10.0 mi WSW 11.5 mph - N/A   Overcast
11:53 AM 39.9 °F 29.7 °F 33.1 °F 77% 29.56 in 10.0 mi WNW 23.0 mph - N/A   Overcast
12:37 PM 37.4 °F 25.0 °F 30.2 °F 75% 29.54 in 10.0 mi NNW 29.9 mph 41.4 mph N/A   Overcast
12:53 PM 36.0 °F 22.8 °F 30.9 °F 82% 29.58 in 10.0 mi NNW 31.1 mph 42.6 mph N/A   Overcast
1:53 PM 35.6 °F 22.7 °F 30.2 °F 81% 29.56 in 4.0 mi NNW 28.8 mph 44.9 mph N/A   Overcast
2:04 PM 35.6 °F 22.7 °F 30.2 °F 81% 29.57 in 6.0 mi NNW 28.8 mph 43.7 mph N/A   Overcast
2:53 PM 36.0 °F 23.0 °F 30.9 °F 82% 29.64 in 7.0 mi NNW 29.9 mph 39.1 mph N/A   Overcast
3:53 PM 34.0 °F 19.5 °F 30.0 °F 85% 29.68 in 2.0 mi NW 34.5 mph 43.7 mph 0.00 in Snow Light Snow
4:04 PM 35.6 °F 22.1 °F 30.2 °F 81% 29.66 in 3.0 mi NW 32.2 mph 40.3 mph 0.00 in Snow Light Snow
4:24 PM 33.8 °F 19.2 °F 30.2 °F 87% 29.67 in 2.5 mi NW 34.5 mph 46.0 mph N/A Snow Light Snow
4:53 PM 34.0 °F 19.5 °F 30.9 °F 89% 29.73 in 2.0 mi NW 34.5 mph 43.7 mph 0.00 in Snow Light Snow
4:56 PM 33.8 °F 19.4 °F 30.2 °F 87% 29.70 in 1.8 mi NW 33.4 mph 43.7 mph 0.00 in Snow Light Snow
5:04 PM 35.6 °F 22.3 °F 30.2 °F 81% 29.71 in 3.0 mi NW 31.1 mph 49.5 mph 0.00 in Snow Light Snow
5:19 PM 35.6 °F 22.5 °F 30.2 °F 81% 29.71 in 10.0 mi NW 29.9 mph 42.6 mph 0.00 in   Overcast
5:53 PM 35.1 °F 22.5 °F 28.9 °F 78% 29.77 in 10.0 mi NNW 26.5 mph 38.0 mph 0.00 in   Overcast
6:53 PM 35.1 °F 25.2 °F 26.1 °F 70% 29.81 in 10.0 mi NW 16.1 mph - N/A   Overcast
7:53 PM 34.0 °F 23.4 °F 24.1 °F 67% 29.86 in 10.0 mi NW 17.3 mph - N/A   Clear
8:53 PM 32.0 °F 22.1 °F 24.1 °F 73% 29.88 in 10.0 mi WNW 13.8 mph - N/A   Clear
9:53 PM 30.0 °F 18.7 °F 21.9 °F 72% 29.91 in 10.0 mi WNW 16.1 mph - N/A   Clear
10:53 PM 28.9 °F 18.2 °F 21.0 °F 72% 29.91 in 10.0 mi WNW 13.8 mph - N/A   Clear
11:53 PM 26.1 °F 15.6 °F 19.9 °F 78% 29.94 in 10.0 mi West 11.5 mph - N/A   Clear